STARLINK-4050 (53274 NORAD) Tracking and Keplerian Element Data

This shows tracking and keplerian element data for the satellite.

Feedback or suggestion? Click here.




ElementValue
Catalog53274
NameSTARLINK-4050
Epoch Orbit130
Epoch Day269.91667824
Epoch Year2022
RAAN84.8019
Inclination53.2169
Eccentricity0.000169
Argument of Perigee32.5225
Mean Anonmoly37.2474
Mean Motion15.63728643
Decay Rate-0.01023115
L11 53274U 22086AJ 22269.91667824 -.01023115 00000+0 -11953-1 0 9997
L22 53274 53.2169 84.8019 0001690 32.5225 37.2474 15.63728643 1300

Live tracking and technical data element details for STARLINK-4050 (NORAD 53274). STARLINK-4050 can be tracked NOW for your location showing map with azimuth and elevation plus other details from your city location.

Track the satellite on the map from your city or location and see movement details for azimuth, elevation, latitude, longitude, range, height, and movement on the map or in text.







IsCatalogInMostPopularTable: catalog: 53274, numindb: 3
Update: records affected: 1



GetName: 53274 STARLINK-4050

Hit Count: updated at: Wed, 28 Sep 2022 22:52:20 GMT